Weather in Nyandoma

Russia / Arkhangel'skaya Oblast'     61°40′11″N   40°12′15″E
temp.,
°C
wind,
m/s
gust,
m/s
humid.,
%
clouds,
%
prec.,
mm/h
press.,
hPa
HPBL,
m
13 april, tue
tue1300:00+6s4169395 0.0 1029478
03:00+6s41494100 0.0 1027504
06:00+6s41195100 0.6 1025418
09:00+7s41194100 0.6 1024405
12:00+8ssw41294100 0.1 1023660
15:00+7ssw41198100 3.1 1022525
18:00+8ssw3998100 0.8 1022439
21:00+7ssw2699100 0.9 1021175
14 april, wed
wed1400:00+6sw25100100 0.2 1020132
03:00+6ssw14100100 0.2 102095
06:00+7s279999 0.2 1018168
09:00+10ssw4148324 0.2 1016510
12:00+14sw5157383 0.1 10151303
15:00+13wsw5128297 0.6 10151210
18:00+6nw3794100 0.4 1018411
21:00+4nw3791100 0.8 1021636
15 april, thu
thu1500:00+3nw278994 0.0 1021428
03:00+2n2791100 0.0 1023366
06:00+1n3780100 0.0 1025446
09:00+2nne3568100 0.0 1026617
12:00+5n345481 0.0 10271049
15:00+6n35454 0.0 10271313
18:00+5nne34555 0.0 1028956
21:00
16 april, fri
fri1600:000nne22820 0.0 103020
03:00−1ne117819 0.0 103010
06:000nw11737 0.0 103015
09:00+4wnw12535 0.0 1030582
12:00+7nw23455 0.0 10301257
15:00+8nnw355190 0.0 10301673
18:00+6n356578 0.1 1030950
21:00+2nne310765 0.1 1033395
17 april, sat
sat1700:00+1n249414 0.0 103396
03:00−1n249616 0.0 103484
06:00−1nnw27885 0.0 1035251
09:00+4nnw376716 0.0 1034718
12:00+7nnw4756100 0.0 10331566
15:00+7nw386199 0.0 10331597
18:00+7nnw386440 0.1 10331174
21:00+3nw258379 0.1 1033114